Location: Mohawk View
(42.7837°N, 73.7885°W)
Time: 16:51:56
(UTC+00:00)

Helios 1A - Pass Details

Date: 17 June 2021
Orbit: 584 x 601 km, 98.2° (Epoch: 23 July)

Event Time Altitude Azimuth Distance (km) Brightness Sun altitude
Exits shadow 05:22:29 26° 99° (E) 1,188 4.4 -23.6°
Maximum altitude 05:23:39 30° 69° (ENE) 1,073 4.5 -23.5°
Drops below altitude 10° 05:27:20 10° 8° (N) 1,940 6.7 -23.4°
Sets 05:29:42 0° 357° (N) 2,850 7.8 -23.4°
